テンペル第1彗星

9P/Tempel 1 (2005)

English version
Home page
Updated on November 3, 2011

---------------------------------------------------------------------

・ プロフィール

・ 写真集

・ 軌道要素

Epoch 2005 July 9.0 TT = JDT 2453560.5
T 2005 July 5.3153 TT                                   MPCN
q   1.506167             (2000.0)            P               Q
n   0.1787117      Peri.  178.8390      -0.3779058      +0.9100015
a   3.121530       Node    68.9373      -0.8509115      -0.2687824
e   0.517491       Incl.   10.5301      -0.3648792      -0.3156792
P   5.52
From 672 observations 1967-2000, mean residual 0".8.  Nongravitational
     parameters A1 = +0.01, A2 = +0.0018.

・ 星図

・ 光度変化

        m1 = 14.0 + 5 logΔ +  7.5 log r  [    ,-290]  (              〜2004年 9月18日)
        m1 =  6.0 + 5 logΔ + 25   log r  [-290, 195]  (2004年 9月18日〜2006年 1月16日)
        m1 = 11.5 + 5 logΔ + 10.0 log r  [ 195,    ]  (2006年 1月16日〜              )

---------------------------------------------------------------------

軌道要素はMPCのEphemerides and Orbital Elementsに掲載されたものです。
星図は StellaNavigator Ver.2.0 for Windows (アストロアーツ 編著 / アスキー出版局刊) で作成したものです。
光度グラフはComet for Windowsで作成したものです。

---------------------------------------------------------------------

Copyright(C) Seiichi Yoshida (comet@aerith.net). All rights reserved.